{"data":{"norad_id":64134,"epoch":"2026-05-24T17:36:32.975136Z","epoch_age_seconds":97961,"freshness":"FRESH","line1":"1 64134U 25111M   26144.73371499  .00148261  00000+0  11375-2 0  9998","line2":"2 64134  43.0005 235.0499 0001410 271.8704  88.2003 15.70859982 58603","mean_motion":15.70859982,"eccentricity":0.000141,"inclination_deg":43.0005,"raan_deg":235.0499,"arg_perigee_deg":271.8704,"mean_anomaly_deg":88.2003,"bstar":0.0011375,"rev_number":5860,"period_min":91.669532389934,"perigee_km":355.48837481035,"apogee_km":357.38752494621,"semimajor_km":6734.5749498783,"source":"CELESTRAK","updated_at":"2026-05-25T13:38:20.273646Z"}}